Location: NJAA Observatory
(40.6819°N, 74.8979°W)
Time: 13:21:26
(UTC-05:00)

S-56A Canister/Altair - Visible Passes

Search period start: 29 January 2015 00:00
Search period end: 08 February 2015 00:00
Orbit: 634 x 2502 km, 38.9° (Epoch: 25 January)

Date Brightness Start Highest point End Pass type
(mag) Time Alt. Az. Time Alt. Az. Time Alt. Az.
29 Jan 10.7 19:15:47 10° W 19:28:42 44° SW 19:42:10 10° SSE visible
29 Jan 11.6 21:25:32 10° W 21:33:41 16° SW 21:40:28 10° SSW visible
30 Jan 10.7 18:42:59 10° W 18:55:41 48° SSW 19:09:34 10° SE visible
30 Jan 11.6 20:51:33 10° W 21:00:53 19° SW 21:09:12 10° SSW visible
31 Jan 10.7 18:10:18 10° W 18:22:39 51° SSW 18:36:52 10° SE visible
31 Jan 11.5 20:17:56 10° W 20:28:03 22° SW 20:37:33 10° S visible
01 Feb 10.6 17:37:44 10° W 17:49:39 54° SSW 18:04:02 10° SE visible
01 Feb 11.5 19:44:36 10° W 19:55:11 25° SW 20:05:38 10° S visible
02 Feb 11.4 19:11:30 10° W 19:22:18 27° SW 19:33:30 10° S visible
03 Feb 11.4 18:38:34 10° W 18:49:24 30° SW 19:01:12 10° SSE visible
04 Feb 11.3 18:05:48 10° W 18:16:30 33° SW 18:28:44 10° SSE visible
05 Feb 11.3 17:33:09 10° W 17:43:36 36° SW 17:56:07 10° SSE visible
05 Feb 12.1 19:45:09 10° WSW 19:48:53 11° SW 19:51:15 10° SW visible
06 Feb 12.0 19:10:14 10° WSW 19:16:05 13° SW 19:21:02 10° SSW visible
07 Feb 12.0 18:36:24 10° WSW 18:43:16 15° SW 18:49:45 10° SSW visible
